Flag for Brunei Weather past 2 weeks in Bandar Seri Begawan, Brunei

Now
84 °F

Passing clouds.


Feels Like: 94 °F
Forecast: 76 / 88 °F
Wind: 12 mph from Northeast

Location: Brunei Airport

Current Time: Dec 26, 2014 at 7:00:07 PM

Latest Report: Dec 26, 2014 at 6:30 PM


Visibility: N/A

Pressure: 29.74 "Hg

Humidity: 79%

Dew point: 77 °F

Location of Bandar Seri BegawanLocation

Historic Weather in Bandar Seri Begawan — Graph

°F

Bandar Seri Begawan temperature yesterday

Maximum temperature yesterday: 90 °F (at 1:00 PM)
Minimum temperature yesterday: 75 °F (at 3:30 AM)
Average temperature yesterday: 82 °F

Past Weeks' High & Low Weather Summary

 TemperatureHumidityPressure
High91 °F (Dec 12, 1:00 PM)100% (Dec 13, 2:00 AM)29.92 "Hg (Dec 13, 2:00 AM)
Low75 °F (Dec 15, 10:30 PM)56% (Dec 14, 2:00 PM)29.68 "Hg (Dec 22, 3:30 PM)
Average82 °F86%29.81 "Hg
* Reported Dec 11 5:00 PM — Dec 26 5:30 PM, Bandar Seri Begawan, Weather by CustomWeather, © 2014

Note: Actual official high and low records may vary slightly from our data, if they occured in-between our weather recording intervals... More about our weather records

Advertising

Bandar Seri Begawan weather history for previous 24 hours

 ConditionsComfort  
Time TempWeatherWind HumidityBarometerVisibility
5:30 PM
Dec 26
86 °FPartly sunny.15 mph79%29.71 "HgN/A
5:00 PM88 °FScattered clouds.14 mph70%29.71 "HgN/A
4:30 PM88 °FScattered clouds.9 mph66%29.71 "HgN/A
4:00 PM88 °FScattered clouds.9 mph70%29.71 "HgN/A
3:30 PM88 °FScattered clouds.10 mph75%29.71 "HgN/A
3:00 PM90 °FScattered clouds.12 mph67%29.71 "HgN/A
2:30 PM90 °FScattered clouds.9 mph63%29.71 "HgN/A
2:00 PM90 °FScattered clouds.8 mph63%29.74 "HgN/A
1:30 PM90 °FScattered clouds.8 mph63%29.74 "HgN/A
1:00 PM90 °FScattered clouds.8 mph67%29.74 "HgN/A
12:30 PM88 °FBroken clouds.9 mph70%29.77 "HgN/A
12:00 PM90 °FBroken clouds.6 mph67%29.77 "HgN/A
11:30 AM90 °FPartly sunny.6 mph63%29.80 "HgN/A
10:30 AM88 °FPartly sunny.5 mph66%29.80 "HgN/A
10:00 AM88 °FPartly sunny.6 mph70%29.80 "HgN/A
9:30 AM86 °FPartly sunny.2 mph75%29.80 "HgN/A
9:00 AM86 °FPartly sunny.3 mph79%29.83 "HgN/A
8:30 AM82 °FPartly sunny.5 mph89%29.83 "HgN/A
8:00 AM81 °FPartly sunny.6 mph94%29.83 "HgN/A
7:30 AM79 °FPartly sunny.6 mph94%29.80 "HgN/A
7:00 AM79 °FPartly sunny.3 mph94%29.80 "HgN/A
6:30 AM79 °FScattered clouds.3 mph94%29.80 "HgN/A
6:00 AM79 °FPassing clouds.5 mph94%29.77 "HgN/A
5:30 AM79 °FThunderstorms. Passing clouds.2 mph94%29.77 "HgN/A
5:00 AM79 °FThunderstorms. Passing clouds.2 mph94%29.77 "HgN/A
4:30 AM79 °FThunderstorms. Partly cloudy.5 mph94%29.77 "HgN/A
4:00 AM79 °FThunderstorms. Partly cloudy.2 mph89%29.77 "HgN/A
3:30 AM79 °FThunderstorms. Partly cloudy.3 mph89%29.77 "HgN/A
3:00 AM79 °FThunderstorms. Partly cloudy.2 mph89%29.77 "HgN/A
2:30 AM79 °FPartly cloudy.3 mph89%29.77 "HgN/A
2:00 AM79 °FPartly cloudy.2 mph94%29.77 "HgN/A
1:30 AM81 °FPassing clouds.2 mph89%29.77 "HgN/A
1:00 AM79 °FPassing clouds.6 mph94%29.80 "HgN/A
12:30 AM81 °FPartly cloudy.5 mph89%29.80 "HgN/A
12:00 AM81 °FPartly cloudy.5 mph94%29.80 "HgN/A
11:30 PM
Dec 25
81 °FPassing clouds.3 mph94%29.80 "HgN/A
11:00 PM82 °FPartly cloudy.6 mph89%29.80 "HgN/A
10:30 PM82 °FPartly cloudy.2 mph89%29.80 "HgN/A
10:00 PM82 °FPartly cloudy.2 mph89%29.80 "HgN/A
9:30 PM82 °FPartly cloudy.5 mph89%29.80 "HgN/A
9:00 PM82 °FPassing clouds.5 mph89%29.80 "HgN/A
8:30 PM84 °FPassing clouds.7 mph84%29.77 "HgN/A
8:00 PM82 °FPassing clouds.6 mph89%29.77 "HgN/A
7:30 PM84 °FPassing clouds.6 mph79%29.77 "HgN/A
7:00 PM84 °FPassing clouds.5 mph79%29.77 "HgN/A
Weather by CustomWeather, © 2014

See weather overviewHow to use our weather pages